Evansville, IN

6:45 AM CDT on May 29, 2017 (GMT -0500)
Evansville Regional

Weather History for KEVV - May, 2012

Change the Weather History Date:

Saturday, May 12, 2012

  Actual Average Record
Temperature  
Mean Temperature 65 °F 64 °F  
Max Temperature 75 °F 76 °F 90 °F (1902)
Min Temperature 55 °F 53 °F 37 °F (1981)
Degree Days  
Heating Degree Days 0 3  
Month to date heating degree days 10 49  
Since 1 July heating degree days 3473 4504  
Cooling Degree Days 0 3  
Month to date cooling degree days 84 23  
Year to date cooling degree days 180 50  
Growing Degree Days 15 (Base 50)    
Moisture  
Dew Point 53 °F    
Average Humidity 63    
Maximum Humidity 87    
Minimum Humidity 38    
Precipitation  
Precipitation 0.03 in 0.19 in 3.15 in (1959)
Month to date precipitation 1.96 2.09  
Year to date precipitation 11.05 16.97  
Snow  
Snow 0.00 in 0.00 in 0.00 in (2002)
Month to date snowfall 0.0 0.0  
Since 1 July snowfall 0.5 11.8  
Snow Depth 0.00 in    
Sea Level Pressure  
Sea Level Pressure 30.18 in    
Wind  
Wind Speed 4 mph (East)    
Max Wind Speed 9 mph    
Max Gust Speed 13 mph    
Visibility 9 miles    
Events Rain    
T = Trace of Precipitation, MM = Missing Value Source: NWS Daily Summary

Daily Weather History Graph

Daily Weather History Graph

Search for Another Location

Airport or City:

Trip Planner

Search our weather history database for the weather conditions in past years. The results will help you decide how hot, cold, wet, or windy it might be!

Date:

Astronomy

May. 12, 2012 Rise Set
Actual Time 5:41 AM CDT 7:51 PM CDT
Civil Twilight 5:12 AM CDT 8:20 PM CDT
Nautical Twilight 4:36 AM CDT 8:57 PM CDT
Astronomical Twilight 3:57 AM CDT 9:36 PM CDT
Moon 1:07 AM CDT (5/12) 12:18 PM CDT (5/12)
Length of Visible Light 15h 08m
Length of Day
14h 09m
Waning Gibbous, 52% of the Moon is Illuminated
May 12
Waning Gibbous
May 12
Last Quarter
May 20
New
May 28
First Quarter
Jun 4
Full

Hourly Weather History & Observations

Time (CDT) Temp. Dew Point Humidity Pressure Visibility Wind Dir Wind Speed Gust Speed Precip Events Conditions
12:54 AM 60.1 °F 52.0 °F 75% 30.17 in 10.0 mi Calm Calm - N/A   Clear
1:54 AM 57.2 °F 51.8 °F 82% 30.17 in 10.0 mi NE 3.5 mph - N/A   Clear
2:54 AM 57.0 °F 52.0 °F 83% 30.17 in 10.0 mi Calm Calm - N/A   Clear
3:54 AM 57.0 °F 51.1 °F 81% 30.18 in 10.0 mi NE 5.8 mph - N/A   Clear
4:54 AM 55.9 °F 51.1 °F 84% 30.19 in 10.0 mi ENE 4.6 mph - N/A   Clear
5:54 AM 55.9 °F 51.1 °F 84% 30.20 in 10.0 mi ENE 5.8 mph - N/A   Clear
6:54 AM 57.9 °F 52.0 °F 81% 30.22 in 10.0 mi NE 4.6 mph - N/A   Clear
7:54 AM 61.0 °F 51.1 °F 70% 30.22 in 10.0 mi Calm Calm - N/A   Clear
8:54 AM 64.9 °F 51.1 °F 61% 30.23 in 10.0 mi East 3.5 mph - N/A   Clear
9:54 AM 68.0 °F 48.0 °F 49% 30.22 in 10.0 mi ESE 5.8 mph - N/A   Clear
10:54 AM 73.0 °F 48.0 °F 41% 30.21 in 10.0 mi East 8.1 mph - N/A   Clear
11:54 AM 73.0 °F 46.9 °F 39% 30.19 in 10.0 mi East 5.8 mph - N/A   Clear
12:54 PM 73.0 °F 48.9 °F 42% 30.18 in 10.0 mi ESE 4.6 mph - N/A   Partly Cloudy
1:54 PM 75.0 °F 50.0 °F 41% 30.17 in 10.0 mi East 5.8 mph - N/A   Partly Cloudy
2:54 PM 72.0 °F 52.0 °F 49% 30.17 in 10.0 mi SE 4.6 mph - N/A   Overcast
3:54 PM 69.1 °F 55.0 °F 61% 30.18 in 7.0 mi SSE 6.9 mph - 0.00 in Rain Light Rain
4:54 PM 66.0 °F 57.9 °F 75% 30.17 in 6.0 mi SE 6.9 mph - 0.00 in Rain Light Rain
5:54 PM 64.9 °F 59.0 °F 81% 30.17 in 6.0 mi Calm Calm - 0.02 in Rain Light Rain
6:54 PM 64.0 °F 60.1 °F 87% 30.16 in 6.0 mi SE 3.5 mph - 0.00 in   Overcast
7:54 PM 64.0 °F 59.0 °F 84% 30.17 in 6.0 mi Calm Calm - N/A   Overcast
8:54 PM 64.0 °F 60.1 °F 87% 30.17 in 7.0 mi ENE 4.6 mph - N/A   Overcast
9:54 PM 64.0 °F 59.0 °F 84% 30.18 in 9.0 mi ENE 3.5 mph - N/A   Overcast
10:54 PM 63.0 °F 59.0 °F 87% 30.18 in 9.0 mi Calm Calm - 0.01 in Rain Light Rain
11:54 PM 62.1 °F 57.9 °F 86% 30.17 in 9.0 mi ENE 3.5 mph - 0.00 in Rain Light Rain